Вернуться в каталог

CZ-4C DEB

АктивенSSO
NORAD 38661·DEBRIS·🇨🇳 China

Запущен May 29, 2012 с Taiyuan Satellite Launch Center

Loading…

Ближайшие Пролёты (ближайшие 24 часа)

TLE

СвежийSource: Space-Track

Эпоха: Sep 13, 2026, 09:20 UTC

1 38661U 12029C   26256.38913322  .00000067  00000-0  26029-3 0  9995
2 38661 100.0511 305.9095 0124665  95.3485 266.1868 13.19912142685192

Отслеживайте CZ-4C DEB в реальном времени с AllMySat

Download on the App Store